Cas;Teplota [C];Tlak [hPa];Svetlo [lux];Rychlost vetru [km/h];Smer vetru [stupne]
2022-01-12 00:00:01;-4.62;1034.96;6;0;0
2022-01-12 00:01:01;-4.68;1034.98;7;0;0
2022-01-12 00:02:00;-4.74;1035.02;6;0;0
2022-01-12 00:03:01;-4.7;1035.03;6;0;0
2022-01-12 00:04:01;-4.61;1035.05;5;0;0
2022-01-12 00:05:01;-4.76;1035.03;6;0;0
2022-01-12 00:06:02;-4.71;1035.05;6;0;0
2022-01-12 00:07:01;-4.69;1035.02;6;0;0
2022-01-12 00:08:01;-4.68;1035.01;6;0;0
2022-01-12 00:09:01;-4.71;1034.92;6;0;0
2022-01-12 00:10:02;-4.66;1034.97;6;0;0
2022-01-12 00:11:01;-4.71;1034.99;6;0;0
2022-01-12 00:12:01;-4.76;1035.01;6;0;0
2022-01-12 00:13:01;-4.81;1035.1;6;0;0
2022-01-12 00:14:01;-4.67;1035.06;7;0;0
2022-01-12 00:15:01;-4.89;1035.11;6;0;0
2022-01-12 00:16:02;-4.82;1035.12;6;0;0
2022-01-12 00:17:01;-4.93;1035.11;6;1.91;242
2022-01-12 00:18:01;-4.78;1035.09;6;2.33;0
2022-01-12 00:19:01;-4.62;1035.06;6;0;0
2022-01-12 00:20:01;-4.96;1035.05;6;0;0
2022-01-12 00:21:01;-4.81;1035.07;6;0;0
2022-01-12 00:22:01;-4.98;1035.04;6;0;0
2022-01-12 00:23:01;-4.87;1035.01;6;0;0
2022-01-12 00:24:01;-4.88;1034.99;6;0;0
2022-01-12 00:25:01;-4.94;1035.03;6;0;0
2022-01-12 00:26:01;-4.77;1035.01;6;0;0
2022-01-12 00:27:01;-4.87;1034.99;6;0;0
2022-01-12 00:28:01;-4.93;1034.96;7;0;0
2022-01-12 00:29:01;-4.76;1034.96;6;0;0
2022-01-12 00:30:01;-4.99;1034.9;7;0;0
2022-01-12 00:31:01;-4.84;1034.97;6;0;0
2022-01-12 00:32:01;-4.99;1034.95;6;0;0
2022-01-12 00:33:01;-4.96;1034.98;6;0;0
2022-01-12 00:34:01;-5.09;1034.95;6;0;0
2022-01-12 00:35:01;-5;1034.95;6;0;0
2022-01-12 00:36:01;-5.07;1035;6;0;0
2022-01-12 00:37:01;-5.2;1034.97;6;0;0
2022-01-12 00:38:01;-5.09;1034.96;6;0;0
2022-01-12 00:39:01;-5.03;1035;6;0;0
2022-01-12 00:40:02;-4.99;1034.96;5;0;0
2022-01-12 00:41:01;-5.06;1034.92;6;0;0
2022-01-12 00:42:01;-5;1034.86;7;0;0
2022-01-12 00:43:01;-4.96;1034.87;6;0;0
2022-01-12 00:44:02;-5.03;1034.94;5;0;0
2022-01-12 00:45:01;-4.85;1034.95;6;0;0
2022-01-12 00:46:01;-5.12;1034.91;6;0;0
2022-01-12 00:47:01;-4.96;1034.82;6;0;0
2022-01-12 00:48:01;-4.96;1034.86;6;0;0
2022-01-12 00:49:02;-4.97;1034.94;6;0;0
2022-01-12 00:50:01;-5.13;1034.87;6;0;0
2022-01-12 00:51:01;-5.06;1034.93;6;0;0
2022-01-12 00:52:02;-4.95;1034.95;7;0;0
2022-01-12 00:53:01;-5.06;1034.87;6;0;0
2022-01-12 00:54:01;-5;1034.93;6;0;0
2022-01-12 00:55:01;-4.97;1034.88;6;0;0
2022-01-12 00:56:01;-5.24;1034.9;6;0;0
2022-01-12 00:57:01;-5.02;1034.9;7;0;0
2022-01-12 00:58:01;-5.01;1034.99;7;0;0
2022-01-12 00:59:01;-5;1034.93;6;0;0
2022-01-12 01:00:01;-4.97;1034.97;7;0;0
2022-01-12 01:01:02;-5.17;1034.96;6;0;0
2022-01-12 01:02:01;-4.93;1034.98;6;0;0
2022-01-12 01:03:01;-5.07;1034.93;6;0;0
2022-01-12 01:04:01;-5.09;1034.87;6;0;0
2022-01-12 01:05:01;-5.03;1034.86;6;0;0
2022-01-12 01:06:02;-5.02;1034.86;6;0;0
2022-01-12 01:07:01;-5.05;1034.84;6;0;0
2022-01-12 01:08:01;-5.15;1034.82;6;0;0
2022-01-12 01:09:01;-5.34;1034.85;5;0;0
2022-01-12 01:10:01;-5.32;1034.89;6;0;0
2022-01-12 01:11:01;-5.27;1034.89;6;0;0
2022-01-12 01:12:01;-5.28;1034.96;6;0;0
2022-01-12 01:13:01;-5.16;1034.9;6;0;0
2022-01-12 01:14:01;-5.19;1034.94;6;0;0
2022-01-12 01:15:02;-5.27;1034.95;6;0;0
2022-01-12 01:16:02;-5.27;1034.89;6;0;0
2022-01-12 01:17:01;-5.23;1034.89;6;0;0
2022-01-12 01:18:01;-5.35;1034.87;6;0;0
2022-01-12 01:19:01;-5.12;1034.84;7;0;0
2022-01-12 01:20:01;-5.29;1034.93;6;0;0
2022-01-12 01:21:01;-5.16;1035.04;6;0;0
2022-01-12 01:22:01;-5.29;1035.08;5;0;0
2022-01-12 01:23:01;-5.14;1034.98;6;0;0
2022-01-12 01:24:01;-5.05;1034.99;5;0;0
2022-01-12 01:25:01;-5.03;1034.97;6;0;0
2022-01-12 01:26:01;-5.31;1034.94;6;0;0
2022-01-12 01:27:01;-5.34;1034.91;6;0;0
2022-01-12 01:28:01;-5.27;1034.97;6;0;0
2022-01-12 01:29:01;-5.39;1034.86;6;0;0
2022-01-12 01:30:01;-5.48;1034.89;6;0;0
2022-01-12 01:31:02;-5.19;1034.83;6;0;0
2022-01-12 01:32:01;-5.43;1034.97;6;0;0
2022-01-12 01:33:01;-5.3;1034.97;6;0;0
2022-01-12 01:34:01;-5.23;1034.99;6;0;0
2022-01-12 01:35:01;-5.33;1034.96;6;0;0
2022-01-12 01:36:01;-5.24;1035.06;5;0;0
2022-01-12 01:37:01;-5.29;1034.96;5;0;0
2022-01-12 01:38:01;-5.29;1034.95;6;0;0
2022-01-12 01:39:01;-5.34;1034.96;6;0;0
2022-01-12 01:40:01;-5.35;1034.93;7;0;0
2022-01-12 01:41:01;-5.39;1034.95;6;0;0
2022-01-12 01:42:01;-5.32;1035;6;0;0
2022-01-12 01:43:01;-5.38;1035;5;0;0
2022-01-12 01:44:01;-5.36;1034.99;6;0;0
2022-01-12 01:45:01;-5.42;1034.99;5;0;0
2022-01-12 01:46:01;-5.42;1035.04;6;0;0
2022-01-12 01:47:01;-5.54;1035.05;6;0;0
2022-01-12 01:48:01;-5.57;1035;5;0;0
2022-01-12 01:49:01;-5.47;1035.02;5;0;0
2022-01-12 01:50:02;-5.53;1035.02;6;0;0
2022-01-12 01:51:01;-5.57;1035.01;6;0;0
2022-01-12 01:52:01;-5.37;1035.09;6;0;0
2022-01-12 01:53:01;-5.43;1035.01;7;0;0
2022-01-12 01:54:01;-5.38;1035.05;6;0;0
2022-01-12 01:55:01;-5.39;1035.05;5;0;0
2022-01-12 01:56:01;-5.42;1034.98;6;0;0
2022-01-12 01:57:01;-5.46;1035.03;6;0;0
2022-01-12 01:58:01;-5.4;1035.04;6;0;0
2022-01-12 01:59:02;-5.4;1034.95;6;0;0
2022-01-12 02:00:01;-5.34;1034.98;6;0;0
2022-01-12 02:01:01;-5.43;1035;5;0;0
2022-01-12 02:02:01;-5.52;1035.08;5;0;0
2022-01-12 02:03:01;-5.65;1035.16;6;0;0
2022-01-12 02:04:01;-5.63;1035.22;5;0;0
2022-01-12 02:05:01;-5.35;1035.24;6;0;0
2022-01-12 02:06:01;-5.25;1035.33;6;0;0
2022-01-12 02:07:01;-5.29;1035.39;6;0;0
2022-01-12 02:08:02;-5.36;1035.33;6;0;0
2022-01-12 02:09:01;-5.38;1035.24;6;0;0
2022-01-12 02:10:01;-5.36;1035.18;6;0;0
2022-01-12 02:11:01;-5.44;1035.11;6;0;0
2022-01-12 02:12:02;-5.51;1035.16;7;0;0
2022-01-12 02:13:01;-5.43;1035.15;6;0;0
2022-01-12 02:14:01;-5.32;1035.12;6;0;0
2022-01-12 02:15:01;-5.31;1035.13;6;0;0
2022-01-12 02:16:01;-5.2;1035.15;6;0;0
2022-01-12 02:17:01;-5.31;1035.13;6;0;0
2022-01-12 02:18:01;-5.38;1035.09;6;0;0
2022-01-12 02:19:01;-5.31;1035.1;6;0;0
2022-01-12 02:20:01;-5.39;1035.16;7;0;0
2022-01-12 02:21:01;-5.32;1035.19;6;0;0
2022-01-12 02:22:01;-5.43;1035.12;5;0;0
2022-01-12 02:23:01;-5.58;1035.13;6;0;0
2022-01-12 02:24:01;-5.56;1035.1;6;0;0
2022-01-12 02:25:02;-5.48;1035.02;7;0;0
2022-01-12 02:26:01;-5.54;1035.08;6;0;0
2022-01-12 02:27:01;-5.61;1035.1;6;0;0
2022-01-12 02:28:01;-5.64;1035.09;6;0;0
2022-01-12 02:29:02;-5.74;1035.15;6;0;0
2022-01-12 02:30:01;-5.67;1035.15;5;0;0
2022-01-12 02:31:01;-5.65;1035.18;6;0;0
2022-01-12 02:32:01;-5.65;1035.14;6;0;0
2022-01-12 02:33:01;-5.65;1035.15;6;0;0
2022-01-12 02:34:01;-5.56;1035.14;6;0;0
2022-01-12 02:35:01;-5.62;1035.11;7;0;0
2022-01-12 02:36:01;-5.68;1035.13;6;0;0
2022-01-12 02:37:01;-5.8;1035.17;6;0;0
2022-01-12 02:38:01;-5.65;1035.13;6;0;0
2022-01-12 02:39:01;-5.65;1035.19;5;0;0
2022-01-12 02:40:01;-5.53;1035.22;6;0;0
2022-01-12 02:41:01;-5.54;1035.22;6;0;0
2022-01-12 02:42:01;-5.54;1035.21;6;0;0
2022-01-12 02:43:01;-5.63;1035.21;7;0;0
2022-01-12 02:44:01;-5.48;1035.22;7;0;0
2022-01-12 02:45:01;-5.49;1035.23;6;0;0
2022-01-12 02:46:01;-5.53;1035.19;7;0;0
2022-01-12 02:47:01;-5.49;1035.19;6;0;0
2022-01-12 02:48:01;-5.36;1035.2;6;0;0
2022-01-12 02:49:01;-5.32;1035.19;6;0;0
2022-01-12 02:50:01;-5.36;1035.15;6;0;0
2022-01-12 02:51:01;-5.23;1035.21;5;0;0
2022-01-12 02:52:01;-5.36;1035.25;7;0;0
2022-01-12 02:53:01;-5.49;1035.25;6;0;0
2022-01-12 02:54:01;-5.23;1035.37;7;0;0
2022-01-12 02:55:01;-5.29;1035.39;7;0;0
2022-01-12 02:56:01;-5.35;1035.38;6;0;0
2022-01-12 02:57:02;-5.23;1035.35;5;0;0
2022-01-12 02:58:01;-5.36;1035.25;5;0;0
2022-01-12 02:59:01;-5.28;1035.22;6;0;0
2022-01-12 03:00:01;-5.16;1035.18;6;0;0
2022-01-12 03:01:01;-5.22;1035.16;6;0;0
2022-01-12 03:02:01;-5.26;1035.22;6;0;0
2022-01-12 03:03:01;-4.96;1035.2;7;0;0
2022-01-12 03:04:02;-5.29;1035.26;6;0;0
2022-01-12 03:05:01;-5.25;1035.23;5;0;0
2022-01-12 03:06:01;-5.16;1035.26;6;0;0
2022-01-12 03:07:01;-5.29;1035.22;6;0;0
2022-01-12 03:08:01;-5.05;1035.23;6;0;0
2022-01-12 03:09:01;-5.06;1035.2;5;0;0
2022-01-12 03:10:01;-5.16;1035.13;6;0;0
2022-01-12 03:11:02;-5.3;1035.13;5;0;0
2022-01-12 03:12:01;-5.16;1035.1;6;0;0
2022-01-12 03:13:02;-5.14;1035.11;6;0;0
2022-01-12 03:14:01;-5.2;1034.99;7;0;0
2022-01-12 03:15:01;-5.26;1035.05;6;0;0
2022-01-12 03:16:01;-5.28;1035.08;6;0;0
2022-01-12 03:17:01;-5.34;1035;6;0;0
2022-01-12 03:18:01;-5.26;1035.01;6;0;0
2022-01-12 03:19:01;-5.26;1035.02;5;0;0
2022-01-12 03:20:01;-5.17;1035.01;6;0;0
2022-01-12 03:21:01;-5.18;1034.92;6;0;0
2022-01-12 03:22:01;-5.29;1034.96;6;0;0
2022-01-12 03:23:01;-5.31;1034.97;5;0;0
2022-01-12 03:24:01;-5.26;1034.98;5;0;0
2022-01-12 03:25:01;-5.24;1035.01;7;0;0
2022-01-12 03:26:01;-5.18;1035.03;6;0;0
2022-01-12 03:27:01;-5.23;1035.06;6;0;0
2022-01-12 03:28:01;-5.25;1035.12;5;0;0
2022-01-12 03:29:01;-5.14;1035.11;6;0;0
2022-01-12 03:30:01;-5.3;1035.12;6;0;0
2022-01-12 03:31:01;-5.19;1035.11;6;0;0
2022-01-12 03:32:01;-5.17;1035.07;6;0;0
2022-01-12 03:33:01;-5.15;1035.11;6;0;0
2022-01-12 03:34:01;-5.22;1035.05;6;0;0
2022-01-12 03:35:01;-5.4;1035.13;6;0;0
2022-01-12 03:36:01;-5.06;1035.08;6;0;0
2022-01-12 03:37:02;-5.11;1035.05;6;0;0
2022-01-12 03:38:01;-5.18;1035.05;6;0;0
2022-01-12 03:39:01;-5.28;1035.11;6;0;0
2022-01-12 03:40:01;-5.24;1035.13;6;0;0
2022-01-12 03:41:01;-5.37;1035.12;5;0;0
2022-01-12 03:42:01;-5.1;1035.07;6;0;0
2022-01-12 03:43:01;-5.21;1035.09;6;0;0
2022-01-12 03:44:01;-5.19;1035.07;5;0;0
2022-01-12 03:45:01;-5.2;1035.11;5;0;0
2022-01-12 03:46:02;-5.22;1035.14;5;0;0
2022-01-12 03:47:01;-5.03;1035.1;6;0;0
2022-01-12 03:48:01;-4.99;1035.04;7;0;0
2022-01-12 03:49:01;-5.03;1035.06;6;0;0
2022-01-12 03:50:01;-5.04;1035.12;5;0;0
2022-01-12 03:51:01;-5.14;1035.16;5;0;0
2022-01-12 03:52:02;-5.11;1035.09;6;0;0
2022-01-12 03:53:01;-5.17;1035.09;6;0;0
2022-01-12 03:54:01;-4.95;1035.04;6;0;0
2022-01-12 03:55:01;-5.09;1035.08;6;0;0
2022-01-12 03:56:01;-5.01;1035.11;6;0;0
2022-01-12 03:57:01;-5.03;1035.13;6;0;0
2022-01-12 03:58:01;-5.07;1035.13;6;0;0
2022-01-12 03:59:01;-5.22;1035.15;5;0;0
2022-01-12 04:00:01;-5.16;1035.13;6;0;0
2022-01-12 04:01:01;-5.23;1035.15;6;0;0
2022-01-12 04:02:01;-5.18;1035.15;6;0;0
2022-01-12 04:03:01;-4.92;1035.18;6;0;0
2022-01-12 04:04:01;-5.16;1035.2;6;0;0
2022-01-12 04:05:01;-5.14;1035.15;5;0;0
2022-01-12 04:06:01;-5.02;1035.1;6;0;0
2022-01-12 04:07:01;-5.14;1035.07;6;0;0
2022-01-12 04:08:01;-5.15;1035.02;6;0;0
2022-01-12 04:09:01;-5.12;1035.01;6;0;0
2022-01-12 04:10:01;-5.11;1035;6;0;0
2022-01-12 04:11:01;-5.06;1035.04;6;0;0
2022-01-12 04:12:01;-5.11;1035.08;6;0;0
2022-01-12 04:13:01;-5.01;1035.18;5;0;0
2022-01-12 04:14:01;-5.08;1035.23;6;0;0
2022-01-12 04:15:01;-5.24;1035.23;6;0;0
2022-01-12 04:16:01;-5.45;1035.21;6;0;0
2022-01-12 04:17:01;-5.39;1035.1;6;0;0
2022-01-12 04:18:01;-5.36;1035.16;6;0;0
2022-01-12 04:19:01;-5.23;1035.09;5;0;0
2022-01-12 04:20:01;-5.25;1035.11;6;0;0
2022-01-12 04:21:01;-5.34;1035.16;6;0;0
2022-01-12 04:22:01;-5.4;1035.19;5;0;0
2022-01-12 04:23:01;-5.37;1035.21;6;0;0
2022-01-12 04:24:01;-5.36;1035.21;6;0;0
2022-01-12 04:25:01;-5.58;1035.22;5;0;0
2022-01-12 04:26:01;-5.44;1035.22;6;0;0
2022-01-12 04:27:01;-5.52;1035.18;5;0;0
2022-01-12 04:28:01;-5.7;1035.1;6;0;0
2022-01-12 04:29:01;-5.52;1035.09;6;0;0
2022-01-12 04:30:02;-5.52;1035.04;6;0;0
2022-01-12 04:31:01;-5.74;1035.08;6;0;0
2022-01-12 04:32:01;-5.6;1035.04;6;0;0
2022-01-12 04:33:01;-5.6;1035.07;6;0;0
2022-01-12 04:34:01;-5.65;1035.1;6;0;0
2022-01-12 04:35:01;-5.74;1035.1;5;0;0
2022-01-12 04:36:01;-5.78;1035.11;5;0;0
2022-01-12 04:37:01;-5.93;1035.17;6;0;0
2022-01-12 04:38:01;-5.79;1035.14;6;0;0
2022-01-12 04:39:01;-6.03;1035.09;6;0;0
2022-01-12 04:40:01;-5.85;1035.12;6;0;0
2022-01-12 04:41:01;-6.12;1035.12;7;0;0
2022-01-12 04:42:01;-5.89;1035.13;7;0;0
2022-01-12 04:43:01;-5.86;1035.16;6;0;0
2022-01-12 04:44:01;-5.93;1035.19;6;0;0
2022-01-12 04:45:02;-5.95;1035.13;6;0;0
2022-01-12 04:46:01;-5.84;1035.11;5;0;0
2022-01-12 04:47:01;-5.86;1035.12;6;0;0
2022-01-12 04:48:01;-5.83;1035.15;7;0;0
2022-01-12 04:49:01;-5.89;1035.07;6;0;0
2022-01-12 04:50:02;-6.01;1035.05;6;0;0
2022-01-12 04:51:01;-6.16;1034.99;6;0;0
2022-01-12 04:52:01;-6.15;1035.01;6;0;0
2022-01-12 04:53:01;-6.07;1035.02;6;0;0
2022-01-12 04:54:01;-6.03;1034.98;6;0;0
2022-01-12 04:55:01;-6.07;1035.04;7;0;0
2022-01-12 04:56:01;-5.94;1034.95;6;0;0
2022-01-12 04:57:01;-6.24;1034.99;5;0;0
2022-01-12 04:58:01;-6.28;1034.96;6;0;0
2022-01-12 04:59:01;-6.12;1034.99;5;0;0
2022-01-12 05:00:01;-6.12;1034.96;6;0;0
2022-01-12 05:01:01;-6.23;1034.92;6;0;0
2022-01-12 05:02:01;-6.28;1034.94;6;0;0
2022-01-12 05:03:02;-6.43;1034.84;6;0;0
2022-01-12 05:04:01;-6.4;1034.95;6;0;0
2022-01-12 05:05:01;-6.25;1035;6;0;0
2022-01-12 05:06:01;-6.32;1035.01;6;0;0
2022-01-12 05:07:01;-6.33;1035.03;6;0;0
2022-01-12 05:08:01;-6.31;1035.04;6;0;0
2022-01-12 05:09:02;-6.34;1035;6;0;0
2022-01-12 05:10:01;-6.37;1035.02;6;0;0
2022-01-12 05:11:01;-6.32;1035.02;6;0;0
2022-01-12 05:12:01;-6.24;1035.02;5;0;0
2022-01-12 05:13:01;-6.39;1035.07;7;0;0
2022-01-12 05:14:01;-6.36;1035.08;6;0;0
2022-01-12 05:15:01;-6.32;1035.07;7;0;0
2022-01-12 05:16:01;-6.46;1035.16;6;0;0
2022-01-12 05:17:01;-6.33;1035.17;7;0;0
2022-01-12 05:18:01;-6.34;1035.11;7;0;0
2022-01-12 05:19:02;-6.34;1035.15;7;0;0
2022-01-12 05:20:01;-6.37;1035.15;7;0;0
2022-01-12 05:21:01;-6.37;1035.09;7;0;0
2022-01-12 05:22:01;-6.44;1035.08;5;0;0
2022-01-12 05:23:02;-6.4;1035.04;6;0;0
2022-01-12 05:24:01;-6.34;1035.02;6;0;0
2022-01-12 05:25:01;-6.48;1034.99;6;0;0
2022-01-12 05:26:01;-6.44;1035.06;6;0;0
2022-01-12 05:27:01;-6.6;1035.03;6;0;0
2022-01-12 05:28:01;-6.57;1035.05;6;0;0
2022-01-12 05:29:01;-6.48;1035.08;6;0;0
2022-01-12 05:30:02;-6.61;1035.06;7;0;0
2022-01-12 05:31:01;-6.61;1035.11;6;0;0
2022-01-12 05:32:01;-6.58;1035.15;6;0;0
2022-01-12 05:33:01;-6.58;1035.16;6;0;0
2022-01-12 05:34:01;-6.7;1035.19;6;0;0
2022-01-12 05:35:01;-6.59;1035.16;6;0;0
2022-01-12 05:36:01;-6.48;1035.21;6;0;0
2022-01-12 05:37:01;-6.22;1035.28;7;0;0
2022-01-12 05:38:01;-6.26;1035.38;6;0;0
2022-01-12 05:39:01;-6.4;1035.39;6;0;0
2022-01-12 05:40:01;-6.31;1035.3;6;0;0
2022-01-12 05:41:02;-6.44;1035.26;5;0;0
2022-01-12 05:42:01;-6.38;1035.21;6;0;0
2022-01-12 05:43:01;-6.49;1035.28;6;0;0
2022-01-12 05:44:01;-6.48;1035.25;6;0;0
2022-01-12 05:45:01;-6.39;1035.17;6;0;0
2022-01-12 05:46:02;-6.38;1035.22;6;0;0
2022-01-12 05:47:01;-6.45;1035.25;6;0;0
2022-01-12 05:48:01;-6.49;1035.25;6;0;0
2022-01-12 05:49:01;-6.3;1035.26;5;0;0
2022-01-12 05:50:01;-6.44;1035.27;6;0;0
2022-01-12 05:51:02;-6.2;1035.21;6;0;0
2022-01-12 05:52:01;-6.35;1035.2;5;0;0
2022-01-12 05:53:01;-6.27;1035.22;6;0;0
2022-01-12 05:54:01;-6.19;1035.26;5;0;0
2022-01-12 05:55:01;-6.21;1035.25;7;0;0
2022-01-12 05:56:01;-6.36;1035.24;6;0;0
2022-01-12 05:57:01;-6.35;1035.21;6;0;0
2022-01-12 05:58:01;-6.22;1035.14;6;0;0
2022-01-12 05:59:01;-6.34;1035.16;7;0;0
2022-01-12 06:00:01;-6.35;1035.18;6;0;0
2022-01-12 06:01:01;-6.37;1035.17;6;0;0
2022-01-12 06:02:01;-6.19;1035.19;6;0;0
2022-01-12 06:03:01;-6.51;1035.24;6;0;0
2022-01-12 06:04:02;-6.36;1035.27;6;0;0
2022-01-12 06:05:01;-6.19;1035.32;7;0;0
2022-01-12 06:06:01;-6.27;1035.42;6;0;0
2022-01-12 06:07:01;-6.46;1035.47;7;0;0
2022-01-12 06:08:01;-6.42;1035.53;6;0;0
2022-01-12 06:09:01;-6.16;1035.62;6;0;0
2022-01-12 06:10:01;-6.6;1035.62;6;0;0
2022-01-12 06:11:02;-6.44;1035.56;6;0;0
2022-01-12 06:12:01;-6.27;1035.53;6;0;0
2022-01-12 06:13:01;-6.53;1035.45;7;0;0
2022-01-12 06:14:01;-6.31;1035.43;6;0;0
2022-01-12 06:15:01;-6.53;1035.46;7;0;0
2022-01-12 06:16:01;-6.33;1035.52;6;0;0
2022-01-12 06:17:02;-6.4;1035.52;6;0;0
2022-01-12 06:18:01;-6.48;1035.54;6;0;0
2022-01-12 06:19:01;-6.56;1035.57;6;0;0
2022-01-12 06:20:01;-6.39;1035.54;7;0;0
2022-01-12 06:21:01;-6.51;1035.58;6;0;0
2022-01-12 06:22:01;-6.51;1035.61;6;0;0
2022-01-12 06:23:01;-6.67;1035.59;6;0;0
2022-01-12 06:24:01;-6.62;1035.61;6;0;0
2022-01-12 06:25:01;-6.63;1035.61;6;0;0
2022-01-12 06:26:01;-6.65;1035.66;6;0;0
2022-01-12 06:27:01;-6.66;1035.65;5;0;0
2022-01-12 06:28:01;-6.61;1035.73;6;0;0
2022-01-12 06:29:01;-6.59;1035.72;5;0;0
2022-01-12 06:30:01;-6.6;1035.78;6;0;0
2022-01-12 06:31:01;-6.65;1035.66;7;0;0
2022-01-12 06:32:01;-6.66;1035.54;6;0;0
2022-01-12 06:33:02;-6.59;1035.52;6;0;0
2022-01-12 06:34:01;-6.41;1035.56;6;0;0
2022-01-12 06:35:01;-6.63;1035.62;6;0;0
2022-01-12 06:36:01;-6.28;1035.65;6;0;0
2022-01-12 06:37:01;-6.39;1035.76;6;0;0
2022-01-12 06:38:01;-6.4;1035.79;6;0;0
2022-01-12 06:39:01;-6.5;1035.74;6;0;0
2022-01-12 06:40:01;-6.34;1035.7;5;0;0
2022-01-12 06:41:01;-6.46;1035.72;6;0;0
2022-01-12 06:42:01;-6.48;1035.71;6;0;0
2022-01-12 06:43:02;-6.27;1035.71;6;0;0
2022-01-12 06:44:01;-6.53;1035.69;6;0;0
2022-01-12 06:45:01;-6.52;1035.83;7;0;0
2022-01-12 06:46:01;-6.46;1035.68;6;0;0
2022-01-12 06:47:02;-6.38;1035.75;6;0;0
2022-01-12 06:48:01;-6.28;1035.81;5;0;0
2022-01-12 06:49:01;-6.38;1035.81;6;0;0
2022-01-12 06:50:01;-6.54;1035.83;6;0;0
2022-01-12 06:51:02;-6.46;1035.87;6;0;0
2022-01-12 06:52:01;-6.34;1035.86;6;0;0
2022-01-12 06:53:01;-6.46;1035.76;6;0;0
2022-01-12 06:54:01;-6.38;1035.84;6;0;0
2022-01-12 06:55:01;-6.49;1035.8;7;0;0
2022-01-12 06:56:01;-6.45;1035.83;6;0;0
2022-01-12 06:57:02;-6.45;1035.86;6;0;0
2022-01-12 06:58:01;-6.52;1035.76;7;0;0
2022-01-12 06:59:01;-6.27;1035.84;7;0;0
2022-01-12 07:00:01;-6.16;1035.8;6;0;0
2022-01-12 07:01:01;-6.41;1035.81;6;0;0
2022-01-12 07:02:01;-6.14;1035.78;6;0;0
2022-01-12 07:03:01;-6.38;1035.85;7;0;0
2022-01-12 07:04:01;-6.28;1035.75;6;0;0
2022-01-12 07:05:01;-6.36;1035.74;6;0;0
2022-01-12 07:06:01;-6.34;1035.77;6;0;0
2022-01-12 07:07:01;-6.13;1035.77;6;0;0
2022-01-12 07:08:01;-6.1;1035.75;7;0;0
2022-01-12 07:09:01;-6.25;1035.77;7;0;0
2022-01-12 07:10:02;-6.21;1035.83;6;0;0
2022-01-12 07:11:01;-6.04;1035.82;7;0;0
2022-01-12 07:12:01;-6;1035.82;7;0;0
2022-01-12 07:13:01;-6.04;1035.81;7;0;0
2022-01-12 07:14:02;-6.11;1035.78;7;0;0
2022-01-12 07:15:01;-6.12;1035.83;8;0;0
2022-01-12 07:16:01;-6.16;1035.85;10;0;0
2022-01-12 07:17:01;-6.12;1035.8;10;0;0
2022-01-12 07:18:01;-5.98;1035.77;10;0;0
2022-01-12 07:19:01;-6.07;1035.81;12;0;0
2022-01-12 07:20:01;-5.95;1035.8;13;0;0
2022-01-12 07:21:01;-5.93;1035.83;11;0;0
2022-01-12 07:22:01;-6.13;1035.84;12;0;0
2022-01-12 07:23:01;-6.01;1035.81;14;0;0
2022-01-12 07:24:01;-5.91;1035.85;15;0;0
2022-01-12 07:25:01;-5.91;1035.76;15;0;0
2022-01-12 07:26:02;-5.99;1035.72;16;0;0
2022-01-12 07:27:01;-6.07;1035.88;20;0;0
2022-01-12 07:28:01;-5.8;1035.88;22;0;0
2022-01-12 07:29:01;-5.82;1035.89;26;0;0
2022-01-12 07:30:01;-5.91;1035.91;30;0;0
2022-01-12 07:31:02;-5.94;1035.93;35;0;0
2022-01-12 07:32:01;-6;1035.97;41;0;0
2022-01-12 07:33:01;-5.94;1035.93;46;0;0
2022-01-12 07:34:01;-5.92;1035.9;51;0;0
2022-01-12 07:35:01;-5.87;1035.91;57;0;0
2022-01-12 07:36:01;-5.97;1035.92;64;0;0
2022-01-12 07:37:01;-5.73;1035.83;77;0;0
2022-01-12 07:38:01;-5.84;1035.86;85;0;0
2022-01-12 07:39:01;-5.87;1035.93;94;0;0
2022-01-12 07:40:01;-5.9;1035.93;102;0;0
2022-01-12 07:41:01;-6.02;1035.91;112;0;0
2022-01-12 07:42:01;-5.93;1035.94;123;0;0
2022-01-12 07:43:01;-5.86;1035.98;136;0;0
2022-01-12 07:44:01;-5.72;1035.91;146;0;0
2022-01-12 07:45:01;-5.79;1035.89;163;0;0
2022-01-12 07:46:01;-5.89;1035.89;189;0;0
2022-01-12 07:47:01;-5.84;1035.94;229;0;0
2022-01-12 07:48:01;-6;1036;283;0;0
2022-01-12 07:49:01;-5.8;1035.95;348;0;0
2022-01-12 07:50:01;-5.74;1035.95;414;0;0
2022-01-12 07:51:01;-5.82;1035.94;472;0;0
2022-01-12 07:52:01;-5.69;1036.01;516;0;0
2022-01-12 07:53:01;-5.7;1036.04;543;0;0
2022-01-12 07:54:01;-5.73;1036.04;579;0;0
2022-01-12 07:55:01;-5.59;1036.01;606;0;0
2022-01-12 07:56:01;-5.59;1036.03;627;0;0
2022-01-12 07:57:01;-5.75;1035.98;652;0;0
2022-01-12 07:58:01;-5.47;1036.06;673;0;0
2022-01-12 07:59:01;-5.48;1036;685;0;0
2022-01-12 08:00:01;-5.6;1036.05;684;0;0
2022-01-12 08:01:01;-5.63;1036.02;674;0;0
2022-01-12 08:02:01;-5.69;1036.08;664;0;0
2022-01-12 08:03:01;-5.55;1036.06;652;0;0
2022-01-12 08:04:01;-5.6;1036.03;632;0;0
2022-01-12 08:05:01;-5.57;1036.05;616;0;0
2022-01-12 08:06:01;-5.6;1036.02;610;1.92;58
2022-01-12 08:07:01;-5.63;1036.05;612;0;0
2022-01-12 08:08:01;-5.7;1036.02;626;0;0
2022-01-12 08:09:01;-5.73;1036;647;0;0
2022-01-12 08:10:01;-5.78;1035.98;668;0;0
2022-01-12 08:11:02;-5.69;1036.01;690;0;0
2022-01-12 08:12:01;-5.7;1036.02;713;0;0
2022-01-12 08:13:01;-5.74;1035.99;749;0;0
2022-01-12 08:14:01;-5.65;1036.06;804;0;0
2022-01-12 08:15:01;-5.8;1036.07;849;0;0
2022-01-12 08:16:01;-5.79;1036.03;876;0;0
2022-01-12 08:17:01;-5.65;1036.06;893;0;0
2022-01-12 08:18:01;-5.65;1036.05;911;0;0
2022-01-12 08:19:01;-5.55;1036.04;934;0;0
2022-01-12 08:20:01;-5.6;1036.05;956;0;0
2022-01-12 08:21:01;-5.61;1036.06;973;0;0
2022-01-12 08:22:01;-5.51;1036.01;988;0;0
2022-01-12 08:23:01;-5.53;1036.02;1002;0;0
2022-01-12 08:24:01;-5.58;1036.05;1017;0;0
2022-01-12 08:25:01;-5.58;1035.98;1030;0;0
2022-01-12 08:26:01;-5.53;1036.03;1044;0;0
2022-01-12 08:27:01;-5.51;1035.95;1060;0;0
2022-01-12 08:28:01;-5.62;1036.01;1080;0;0
2022-01-12 08:29:01;-5.55;1036.01;1101;0;0
2022-01-12 08:30:02;-5.57;1036.01;1122;0;0
2022-01-12 08:31:01;-5.6;1036.02;1140;0;0
2022-01-12 08:32:01;-5.59;1036.08;1157;0;0
2022-01-12 08:33:01;-5.41;1036.04;1169;0;0
2022-01-12 08:34:02;-5.51;1036.06;1175;0;0
2022-01-12 08:35:01;-5.58;1036.01;1175;0;0
2022-01-12 08:36:01;-5.37;1036.07;1173;0;0
2022-01-12 08:37:01;-5.53;1036.02;1171;0;0
2022-01-12 08:38:01;-5.34;1036.08;1170;0;0
2022-01-12 08:39:02;-5.51;1036.12;1173;0;0
2022-01-12 08:40:01;-5.47;1036.07;1178;0;0
2022-01-12 08:41:01;-5.39;1036.11;1187;0;0
2022-01-12 08:42:01;-5.4;1036.11;1199;0;0
2022-01-12 08:43:01;-5.28;1036.1;1210;0;0
2022-01-12 08:44:01;-5.37;1036.13;1222;0;0
2022-01-12 08:45:01;-5.46;1036.14;1232;0;0
2022-01-12 08:46:01;-5.55;1036.08;1242;0;0
2022-01-12 08:47:01;-5.4;1036.1;1249;0;0
2022-01-12 08:48:01;-5.39;1036.12;1252;0;0
2022-01-12 08:49:01;-5.34;1036.1;1257;0;0
2022-01-12 08:50:01;-5.39;1036.12;1262;0;0
2022-01-12 08:51:01;-5.43;1036.16;1269;0;0
2022-01-12 08:52:01;-5.4;1036.19;1276;0;0
2022-01-12 08:53:01;-5.26;1036.26;1285;0;0
2022-01-12 08:54:01;-5.27;1036.31;1297;0;0
2022-01-12 08:55:01;-5.11;1036.23;1310;0;0
2022-01-12 08:56:01;-5.28;1036.25;1324;0;0
2022-01-12 08:57:01;-5.36;1036.22;1336;0;0
2022-01-12 08:58:02;-5.4;1036.26;1346;0;0
2022-01-12 08:59:01;-5.29;1036.28;1356;0;0
2022-01-12 09:00:01;-5.29;1036.3;1367;0;0
2022-01-12 09:01:01;-5.34;1036.34;1379;0;0
2022-01-12 09:02:01;-5.38;1036.31;1395;0;0
2022-01-12 09:03:01;-5.5;1036.3;1416;0;0
2022-01-12 09:04:01;-5.42;1036.37;1442;0;0
2022-01-12 09:05:02;-5.22;1036.33;1471;0;0
2022-01-12 09:06:02;-5.4;1036.33;1501;0;0
2022-01-12 09:07:01;-5.16;1036.29;1533;0;0
2022-01-12 09:08:01;-5.41;1036.34;1564;0;0
2022-01-12 09:09:01;-5.21;1036.35;1589;0;0
2022-01-12 09:10:01;-5.21;1036.39;1611;0;0
2022-01-12 09:11:01;-5.25;1036.43;1630;0;0
2022-01-12 09:12:01;-5.26;1036.38;1643;0;0
2022-01-12 09:13:01;-5.27;1036.39;1653;0;0
2022-01-12 09:14:01;-5.06;1036.42;1665;0;0
2022-01-12 09:15:01;-5.14;1036.34;1676;0;0
2022-01-12 09:16:01;-5.1;1036.29;1688;0;0
2022-01-12 09:17:01;-5.14;1036.25;1699;0;0
2022-01-12 09:18:01;-5.22;1036.23;1704;0;0
2022-01-12 09:19:01;-5.18;1036.24;1711;0;0
2022-01-12 09:20:01;-5.03;1036.24;1727;0;0
2022-01-12 09:21:01;-5.12;1036.21;1751;0;0
2022-01-12 09:22:01;-5.08;1036.11;1781;0;0
2022-01-12 09:23:01;-5.05;1036.12;1807;0;0
2022-01-12 09:24:01;-4.99;1036.19;1832;0;0
2022-01-12 09:25:01;-5.04;1036.16;1851;0;0
2022-01-12 09:26:01;-4.96;1036.14;1863;0;0
2022-01-12 09:27:01;-4.9;1036.13;1872;0;0
2022-01-12 09:28:01;-4.96;1036.08;1880;0;0
2022-01-12 09:29:01;-4.85;1036.14;1891;0;0
2022-01-12 09:30:01;-4.75;1036.12;1899;0;0
2022-01-12 09:31:01;-4.73;1036.12;1909;0;0
2022-01-12 09:32:01;-4.78;1036.15;1916;0;0
2022-01-12 09:33:02;-4.82;1036.18;1919;0;0
2022-01-12 09:34:01;-4.87;1036.17;1920;0;0
2022-01-12 09:35:01;-4.73;1036.16;1919;0;0
2022-01-12 09:36:01;-4.64;1036.19;1915;0;0
2022-01-12 09:37:01;-4.63;1036.24;1906;0;0
2022-01-12 09:38:01;-4.61;1036.27;1892;0;0
2022-01-12 09:39:01;-4.64;1036.36;1878;0;0
2022-01-12 09:40:01;-4.65;1036.48;1865;0;0
2022-01-12 09:41:01;-4.68;1036.6;1853;0;0
2022-01-12 09:42:01;-4.61;1036.68;1840;0;0
2022-01-12 09:43:01;-4.61;1036.69;1826;0;0
2022-01-12 09:44:01;-4.57;1036.68;1812;0;0
2022-01-12 09:45:01;-4.41;1036.58;1800;0;0
2022-01-12 09:46:01;-4.35;1036.57;1788;0;0
2022-01-12 09:47:01;-4.36;1036.54;1779;0;0
2022-01-12 09:48:01;-4.37;1036.5;1771;0;0
2022-01-12 09:49:01;-4.4;1036.52;1768;0;0
2022-01-12 09:50:02;-4.39;1036.54;1761;0;0